Location: Mohawk View
(42.7837°N, 73.7885°W)
Time: 23:55:35
(UTC+00:00)

Cosmos 1553 Rocket - Pass Details

Date: 17 June 2021
Orbit: 940 x 1009 km, 82.9° (Epoch: 02 August)

Event Time Altitude Azimuth Distance (km) Brightness Sun altitude
Rises 07:46:36 0° 350° (N) 3,722 7.7 -13.1°
Reaches altitude 10° 07:49:09 10° 350° (N) 2,760 6.9 -12.8°
Maximum altitude 07:55:29 78° 265° (W) 1,002 4.0 -12.0°
Drops below altitude 10° 08:01:39 10° 180° (S) 2,694 5.9 -11.2°
Enters shadow 08:03:23 - 179° (S) 3,352 6.4 -11.0°
